Tracking 18984 objects as of 24-Feb-2018
HD Live streaming from Space Station
objects crossing your sky now

SCOUT X-1 DEB

Track SCOUT X-1 DEB now!
10-day predictions


NORAD ID: 4026
Int'l Code: 1961-004G
Perigee: 559.4 km
Apogee: 1,396.3 km
Inclination: 38.8 °
Period: 104.5 minutes
Semi major axis: 7348 km
RCS: 0.0614 m2 (small)
Launch date: February 16, 1961
Source: United States (US)
Launch site: WALLOPS ISLAND (WLPIS)

Note: This is SATELLITE DEBRIS
aabbcc
Your satellite tracking list
Your tracking list is empty




NASA's NSSDC Master Catalog

Two Line Element Set (TLE):
1 04026U 61004G   18055.48376935  .00001374  00000-0  42073-3 0  9991
2 04026  38.8372 125.6873 0569436 354.1785   5.2531 13.78075222712231
Source of the keplerian elements: AFSPC